Location: Bergheim
(50.9593°N, 6.6400°E)
Time: 10:35:49
(UTC+02:00)

ISS - Pass Details

Date: 25 May 2021
Orbit: 417 x 422 km, 51.6° (Epoch: 13 June)

Event Time Altitude Azimuth Distance (km) Brightness Sun altitude
Rises 22:10:44 0° 279° (W) 2,366 1.1 -5.7°
Reaches altitude 10° 22:12:50 10° 280° (W) 1,502 0.0 -5.9°
Maximum altitude 22:16:12 85° 7° (N) 427 -3.7 -6.3°
Drops below altitude 10° 22:19:35 10° 98° (E) 1,502 -1.4 -6.6°
Enters shadow 22:20:44 - 99° (E) 1,972 -0.8 -6.8°
